Regional Weather Roundup
Issued by NWS Boston, MA

Current Version | Previous Version | Graphics & Text | Print | Product List | Glossary On
Versions: 1 2 3 4 5 6 7 8 9 10 11 12 13 14 15 16 17 18 19 20 21 22 23 24 25 26 27 28 29 30 31 32 33 34 35 36 37 38 39 40 41 42 43 44 45 46 47 48 49
000
ASUS41 KBOX 270404
RWRBOX

REGIONAL WEATHER ROUNDUP
NATIONAL WEATHER SERVICE BOSTON/NORTON MA
1200 AM EDT TUE OCT 27 2020

NOTE:  "FAIR" INDICATES FEW OR NO CLOUDS BELOW 12,000 FEET WITH NO
SIGNIFICANT WEATHER AND/OR OBSTRUCTIONS TO VISIBILITY.

MAZALL-270500-
EASTERN MASSACHUSETTS

CITY           SKY/WX    TMP DP  RH WIND       PRES   REMARKS
BOSTON         CLOUDY    53  51  93 W5        30.07F
BEVERLY        FOG       50  49  96 NW3       30.06F VSB 1
LAWRENCE       CLOUDY    47  47 100 W3        30.09F FOG
BEDFORD        CLOUDY    48  48 100 W3        30.06F FOG
BLUE HILL        N/A     51  51 100 SW7       30.06F
NORWOOD        CLOUDY    54  50  86 CALM      30.07S
MARSHFIELD     CLOUDY    55  55 100 CALM      30.06F
PLYMOUTH       FOG       55  54  96 W5        30.07F VSB 1/2
TAUNTON        CLOUDY    55  53  93 CALM      30.07F FOG
NEW BEDFORD    CLOUDY    56  55  97 CALM      30.07F FOG
$$

MAZALL-270500-
CAPE COD AND THE ISLANDS

CITY           SKY/WX    TMP DP  RH WIND       PRES   REMARKS
FALMOUTH       FOG       57  57 100 E5        30.07F VSB 1
HYANNIS        FOG       58  58 100 S5        30.05F VSB 3/4
CHATHAM        FOG       58  57  97 VRB3      30.06F VSB 3/4
PROVINCETOWN   CLOUDY    58  57  97 SW7       30.07S
NANTUCKET      FOG      N/A N/A N/A SE5       30.06F VSB 1/2
MARTHAS VNYRD  FOG       59  58  96 S5        30.06F VSB 1
$$

MAZALL-270500-
CENTRAL AND WESTERN MASSACHUSETTS

CITY           SKY/WX    TMP DP  RH WIND       PRES   REMARKS
WORCESTER      FOG       51  50  96 SW9       30.06F VSB 1/4
FITCHBURG      CLOUDY    47  32  56 CALM      30.07F HAZE
ORANGE         CLOUDY    47  46  97 CALM      30.09F FOG
SPRINGFIELD    CLOUDY    47  46  96 CALM      30.08S
WESTFIELD      CLOUDY    47  47 100 S3        30.08F FOG
NORTH ADAMS    CLOUDY    51  49  92 W5        30.08R
PITTSFIELD     FOG       48  48 100 NE3       30.06F VSB 1
$$

RIZALL-270500-
RHODE ISLAND

CITY           SKY/WX    TMP DP  RH WIND       PRES   REMARKS
PROVIDENCE     CLOUDY    54  53  97 CALM      30.08F
NEWPORT        CLOUDY    55  55 100 CALM      30.08S FOG
BLOCK ISLAND   CLOUDY    58  57  97 CALM      30.08F
SMITHFIELD     CLOUDY    52  52 100 SW3       30.07F
WESTERLY       FOG       53  52  96 E3        30.07F VSB 1
$$

CTZALL-270500-
CONNECTICUT

CITY           SKY/WX    TMP DP  RH WIND       PRES   REMARKS
BRADLEY INTL   CLOUDY    50  46  86 CALM      30.09S
HARTFORD       CLOUDY    51  47  86 CALM      30.09F
BRIDGEPORT     CLOUDY    59  58  96 S3        30.08F
DANBURY        FOG       54  54 100 CALM      30.10S VSB 3/4
GROTON         CLOUDY    55  54  96 CALM      30.07F
NEW HAVEN      CLOUDY    56  55  97 CALM      30.08F FOG
CHESTER        FOG       54  54 100 CALM      30.08F VSB<1/4
MERIDEN        CLOUDY    51  48  89 CALM      30.09F
WILLIMANTIC    CLOUDY    53  51  93 CALM      30.09S
OXFORD         LGT RAIN  52  52 100 CALM      30.10S VSB 1/4
$$

MEZ002-015-021-024-NHZ003-005-008-011-012-014-VTZ005-008-270500-
NORTHERN NEW ENGLAND

CITY           SKY/WX    TMP DP  RH WIND       PRES   REMARKS
PORTLAND ME    LGT RAIN  43  43 100 NW6       30.07F FOG
BANGOR ME      LGT RAIN  41  40  96 NW6       30.05S VSB 1/2
CONCORD NH     CLOUDY    43  41  93 NW3       30.07F
MANCHESTER NH  FOG       46  43  89 N5        30.06F VSB 3/4
NASHUA NH      CLOUDY    46  46 100 CALM        N/A
PORTSMOUTH NH  FOG       44  44  99 NW6       30.05  VSB 3/8
JAFFREY NH     CLOUDY    45  44  97 S3        30.07S FOG
KEENE NH       CLOUDY    46  46 100 CALM      30.08F FOG
BURLINGTON VT  LGT RAIN  44  41  89 N7        30.14R
MT. WASHINGTON LGT RAIN  34  34 100 W55G61      N/A  VSB 1/16WCI  16
$$

NYZ052-076-270500-
EASTERN NEW YORK

CITY           SKY/WX    TMP DP  RH WIND       PRES   REMARKS
ALBANY         CLOUDY    48  48 100 W5        30.12R
NEW YORK CITY  FOG       59  56  89 S3        30.09S VSB 1/2
$$

ANZALL-270500-
MARINE OBSERVATIONS

STATION/POSITION TIME  TEMP    WIND        PRES    VSBY  WAVE
                       AIR SEA DIR/SP/G                  HT/PER
                 (UTC) (F)     (DEG/KT/KT) (MB)    (MI)  (FT/S)
BOSTON BUOY      0350   55 57  240/  6/ 10 1017.2F         3/ 6
BUZZARDS BAY     0300          150/  8/  9 1019.5F
NANTUCKET SOUND  0350      60  160/  8/ 10   N/A           1/ 6
MASS BAY-STELLWA 0304   55 56  240/  8/ 10 1017.7F  1 7/8  3/ 6
ISLE OF SHOALS   0300   49     280/  3/  3 1018.0F
S OF BLOCK IS    0326      62                N/A           4/ 7
$$

......................KEY.........................
  SKY/WX - SKY CONDITION/PRESENT WEATHER
  TMP    - TEMPERATURE IN FAHRENHEIT
  DWPT   - DEWPOINT IN FAHRENHEIT
  RH     - RELATIVE HUMIDITY IN PERCENT
  WIND   - DIRECTION AND SPEED IN MPH
  PRES   - MEAN SEA LEVEL PRESSURE IN INCHES OF HG
  WCI    - WIND CHILL INDEX
  VSB    - VISIBILITY IN MILES
  HX     - HEAT INDEX
  TC     - TEMPERATURE IN CELSIUS
  VRB    - VARIABLE WIND DIRECTION
  N/A    - NOT AVAILABLE




USA.gov is the U.S. government's official web portal to all federal, state and local government web resources and services.